GSAT0222 (GALILEO 26)

Last updated on Oct. 30, 2020, 5:56 a.m. UTC

1 43565U 18060B   20303.13183921 -.00000093  00000-0  00000+0 0  9996
2 43565  56.8935  37.3932 0004016 257.3933 102.5691  1.70476416 14141
UTC
Height (km)
Latitude
Longitude
Inclination
Orbital Period
UTC large
Height (km)
Speed (km/s)
/
Latitude / Longitude
Inclination (degrees)
Orbital Period (minutes)
Azimuth
Elevation
Range (km)
Doppler Factor
iOS Compass Heading
iOS Angle

Next 30 passes for location: Hong Kong

Rise time Rise Azimuth (degrees) Set time Set Azimuth (degrees) Duration Max altitude (degrees)

No matching passes for this satellites